Volver al catálogo

STARLINK-30464

ActivoComunicacionesVLEO
NORAD 57908·PAYLOAD·🇺🇸 United States

Lanzado Sep 20, 2023 desde Cape Canaveral Space Force Station

Loading…

Próximos Pases (próximas 24 horas)

TLE

ActualizadoSource: CelesTrak SupGP

Época: Sep 15, 2026, 02:44 UTC

1 57908C 23146T   26258.11437500  .00040603  00000+0  14709-2 0  2582
2 57908  43.0039 328.2308 0001991 262.6859  23.3943 15.27552472    19

Sigue STARLINK-30464 en tiempo real con AllMySat

Download on the App Store